[Date Prev][Date Next][Thread Prev][Thread Next] - [Date Index][Thread Index][Author Index]

2 Line ISS Keps 2-3



ISS
1 25544U 98067A   06033.92501278  .00012329  00000-0  87171-4 0  2747
2 25544 051.6439 157.9454 0009122 227.1982 234.5101 15.74434970412007
----
Via the sarex mailing list at AMSAT.ORG courtesy of AMSAT-NA.
To unsubscribe, send "unsubscribe sarex" to Majordomo@amsat.org



AMSAT Top AMSAT Home